Location: Unspecified
(0.0000°N, 0.0000°E)
Time: 16:21:07
(UTC+01:00)

Envisat - Pass Details

Date: 24 October 2021
Orbit: 764 x 766 km, 98.2° (Epoch: 29 November)

Event Time Altitude Azimuth Distance (km) Brightness Sun altitude
Rises 06:30:10 0° 17° (NNE) 3,213 6.3 -18.1°
Reaches altitude 10° 06:32:29 10° 20° (NNE) 2,289 5.5 -17.5°
Maximum altitude 06:37:30 67° 102° (ESE) 823 3.4 -16.3°
Drops below altitude 10° 06:42:31 10° 184° (S) 2,299 5.6 -15.1°
Sets 06:44:50 0° 187° (S) 3,227 6.3 -14.5°
